{"data":{"norad_id":65913,"intl_designator":"2025-225D","name":"STARLINK-35472","alt_names":[],"object_type":"PAYLOAD","status":"ACTIVE","operator":null,"country":"US","launch_date":"2025-10-08","launch_site_code":"AFWTR","launch_vehicle":null,"mission":null,"orbit_class":"UNKNOWN","rcs_meters":null,"size_class":null,"mass_kg":null,"dimensions":null,"purposes":["comms"],"wikipedia_slug":null,"has_3d_model":false,"image_url":null,"decayed_at":null,"tle_current":{"epoch":"2026-09-20T22:25:05.522880Z","epoch_age_seconds":65617,"freshness":"FRESH","line1":"1 65913U 25225D   26263.93409170  .00016830  00000+0  50802-3 0  9997","line2":"2 65913  53.1624 335.7598 0001605  79.9624 280.1560 15.34405765 54344","mean_motion":15.34405765,"eccentricity":0.0001605,"inclination_deg":53.1624,"raan_deg":335.7598,"arg_perigee_deg":79.9624,"mean_anomaly_deg":280.156,"bstar":0.00050802,"rev_number":5434,"period_min":93.847405480779,"perigee_km":461.58815335741,"apogee_km":463.78405757426,"semimajor_km":6840.8231054658,"source":"CELESTRAK","updated_at":"2026-09-21T09:00:35.762705Z"}}}